Total_Precipitation_Accumulation
0.99 1.03 1.08 1.13 1.17 1.16 1.20 1.29 1.44 1.46 1.29 1.06 0.96 0.99 1.05 1.09 1.24 1.09 1.03 1.03 0.92 0.85 0.85 0.88 0.90 0.92 0.98 1.03 1.07 1.13 1.15 1.21 1.26 1.37 1.51 1.63 1.74 1.82
0.85 0.85 0.88 0.94 1.09 1.18 1.25 1.31 1.40 1.48 1.44 1.16 1.01 1.00 1.06 1.08 1.25 1.06 1.03 1.11 0.94 0.81 0.77 0.87 0.93 0.92 0.94 0.93 0.93 0.95 0.99 1.03 1.08 1.16 1.29 1.41 1.53 1.66
0.70 0.72 0.78 0.84 0.92 0.99 1.10 1.22 1.37 1.50 1.56 1.32 1.10 1.03 1.06 1.11 1.14 1.03 0.94 0.90 0.83 0.82 0.70 0.76 1.00 1.16 1.06 0.95 0.89 0.87 0.88 0.93 0.97 1.04 1.16 1.29 1.37 1.45
0.61 0.64 0.63 0.66 0.76 0.83 0.92 1.02 1.13 1.24 1.36 1.33 1.14 1.05 1.04 1.12 1.17 1.15 0.99 0.84 0.77 0.85 0.75 0.69 0.84 1.23 1.30 1.07 0.99 0.91 0.83 0.83 0.84 0.91 1.01 1.11 1.19 1.28
0.50 0.56 0.60 0.64 0.73 0.79 0.88 0.92 0.98 1.03 1.19 1.24 1.14 1.07 1.08 1.13 1.23 1.18 0.99 0.92 0.70 0.68 0.69 0.72 0.85 1.37 1.70 1.47 1.20 1.09 0.93 0.83 0.76 0.79 0.87 0.93 0.96 1.00
0.40 0.43 0.48 0.55 0.65 0.75 0.80 0.87 0.96 1.06 1.14 1.22 1.21 1.18 1.19 1.18 1.23 1.26 1.08 0.92 0.75 0.54 0.61 0.69 0.87 1.34 1.89 2.06 1.68 1.42 1.21 1.01 0.88 0.80 0.78 0.77 0.73 0.70
0.39 0.39 0.38 0.43 0.53 0.59 0.65 0.79 0.98 1.13 1.14 1.19 1.22 1.23 1.23 1.28 1.23 1.15 1.07 0.93 0.76 0.62 0.63 0.65 0.89 1.55 2.12 2.42 2.26 1.73 1.32 1.10 0.94 0.83 0.78 0.73 0.67 0.60
0.47 0.44 0.35 0.33 0.37 0.42 0.50 0.61 0.78 0.99 1.13 1.19 1.21 1.19 1.17 1.21 1.20 1.15 1.14 1.12 0.98 0.70 0.66 0.72 1.03 1.84 2.43 2.68 2.59 1.90 1.32 1.10 0.98 0.89 0.83 0.76 0.68 0.61
0.50 0.50 0.38 0.32 0.39 0.46 0.48 0.50 0.60 0.75 0.96 1.16 1.24 1.14 1.19 1.26 1.31 1.32 1.22 1.21 1.14 0.83 0.79 0.93 1.23 1.83 2.31 2.72 2.66 1.99 1.47 1.19 1.08 0.99 0.91 0.83 0.71 0.62
0.42 0.44 0.48 0.51 0.43 0.42 0.48 0.63 0.78 0.84 0.87 0.91 1.09 1.12 1.17 1.17 1.12 1.15 1.16 1.19 1.09 0.86 0.86 1.12 1.34 1.74 2.11 2.54 2.53 1.95 1.51 1.28 1.16 1.05 0.91 0.80 0.70 0.62
0.36 0.35 0.38 0.46 0.43 0.47 0.62 0.86 1.06 1.20 1.04 0.98 1.05 1.19 1.21 1.09 0.92 0.97 1.20 1.29 1.15 0.91 0.84 1.07 1.31 1.50 1.78 2.10 2.10 1.82 1.49 1.30 1.14 1.00 0.87 0.75 0.67 0.64
0.42 0.41 0.44 0.45 0.46 0.59 0.74 1.02 1.25 1.35 1.17 1.10 1.21 1.34 1.27 1.18 1.08 1.12 1.31 1.29 1.17 1.10 0.91 0.96 1.13 1.25 1.62 1.76 1.61 1.46 1.41 1.38 1.23 1.10 0.95 0.77 0.62 0.56
0.46 0.51 0.53 0.54 0.52 0.63 0.81 1.01 1.23 1.29 1.24 1.20 1.22 1.23 1.23 1.22 1.12 1.11 1.14 1.11 1.10 1.10 0.88 0.95 1.15 1.24 1.44 1.58 1.50 1.40 1.28 1.26 1.24 1.29 1.23 0.98 0.71 0.58
0.56 0.59 0.57 0.57 0.60 0.75 0.89 1.09 1.30 1.41 1.30 1.16 1.05 1.01 1.00 1.03 1.00 0.88 0.83 0.81 0.86 0.91 0.84 0.91 1.19 1.33 1.30 1.28 1.42 1.37 1.30 1.28 1.24 1.28 1.32 1.19 0.97 0.83
0.49 0.64 0.63 0.59 0.74 1.03 1.20 1.32 1.48 1.54 1.34 1.07 0.96 0.89 0.82 0.78 0.75 0.76 0.73 0.67 0.65 0.65 0.60 0.69 0.94 1.11 1.15 1.18 1.27 1.26 1.35 1.52 1.42 1.39 1.32 1.20 1.08 0.94
0.40 0.60 0.72 0.76 0.92 1.21 1.42 1.53 1.58 1.48 1.23 1.01 0.88 0.79 0.72 0.68 0.69 0.66 0.66 0.64 0.66 0.70 0.61 0.59 0.71 0.87 1.03 1.05 1.12 1.22 1.29 1.66 1.68 1.44 1.32 1.30 1.20 1.07
0.36 0.54 0.73 0.83 1.03 1.25 1.39 1.40 1.34 1.24 1.15 0.97 0.83 0.76 0.74 0.71 0.69 0.62 0.61 0.56 0.58 0.62 0.62 0.61 0.64 0.69 0.76 0.84 1.00 1.14 1.26 1.46 1.52 1.30 1.16 1.26 1.30 1.15
0.39 0.62 0.80 0.90 1.05 1.17 1.25 1.22 1.12 1.03 0.95 0.87 0.80 0.73 0.70 0.67 0.66 0.59 0.52 0.50 0.54 0.53 0.51 0.49 0.48 0.49 0.56 0.72 0.93 1.02 1.08 1.24 1.24 1.07 0.89 0.98 1.22 1.20
0.43 0.65 0.82 0.94 1.04 1.07 1.08 1.03 0.97 0.92 0.83 0.76 0.72 0.67 0.61 0.57 0.54 0.50 0.45 0.46 0.45 0.42 0.39 0.35 0.31 0.29 0.40 0.75 0.99 1.04 0.97 0.99 0.99 0.92 0.83 0.83 1.04 1.15
0.50 0.66 0.78 0.83 0.89 0.93 0.91 0.89 0.86 0.79 0.72 0.68 0.67 0.63 0.55 0.49 0.45 0.42 0.40 0.38 0.37 0.33 0.29 0.26 0.25 0.26 0.33 0.56 0.94 1.11 0.95 0.74 0.67 0.71 0.74 0.78 0.90 0.96
0.53 0.63 0.69 0.72 0.75 0.78 0.76 0.72 0.71 0.68 0.61 0.58 0.58 0.58 0.56 0.49 0.41 0.34 0.30 0.24 0.25 0.27 0.28 0.31 0.29 0.24 0.23 0.29 0.55 0.80 0.83 0.76 0.60 0.53 0.53 0.57 0.60 0.55
0.49 0.57 0.59 0.59 0.59 0.60 0.57 0.52 0.52 0.52 0.50 0.50 0.50 0.49 0.49 0.43 0.36 0.29 0.24 0.22 0.21 0.21 0.22 0.24 0.21 0.18 0.19 0.25 0.41 0.57 0.62 0.55 0.49 0.46 0.46 0.41 0.37 0.45
0.42 0.46 0.49 0.49 0.45 0.43 0.43 0.43 0.44 0.45 0.45 0.46 0.46 0.44 0.41 0.36 0.29 0.24 0.20 0.17 0.15 0.14 0.15 0.18 0.18 0.16 0.16 0.19 0.25 0.32 0.35 0.32 0.29 0.32 0.43 0.49 0.46 0.52